Weather History for KRNP - July, 2013

Change the Weather History Date:

Thursday, July 18, 2013

  Actual Average (KFNT) Record (KFNT)
Temperature  
Mean Temperature 84 °F 71 °F  
Max Temperature 94 °F 82 °F 100 °F (1930)
Min Temperature 73 °F 59 °F 45 °F (1924)
Degree Days  
Heating Degree Days 0 0  
Month to date heating degree days 10  
Since 1 June heating degree days 76  
Since 1 July heating degree days 10  
Cooling Degree Days 18 6  
Month to date cooling degree days 108  
Year to date cooling degree days 252  
Since 1 June cooling degree days 220  
Growing Degree Days 34 (Base 50)    
Moisture  
Dew Point 74 °F    
Average Humidity 72    
Maximum Humidity 98    
Minimum Humidity 46    
Precipitation  
Precipitation 0.00 in 0.11 in 2.72 in (1992)
Month to date precipitation 1.82  
Year to date precipitation 15.88  
Snow  
Snow 0.00 in 0.00 in 0.00 in ()
Month to date snowfall 0.0  
Since 1 June snowfall 0.0  
Since 1 July snowfall 0.0  
Snow Depth -    
Sea Level Pressure  
Sea Level Pressure 30.08 in    
Wind  
Wind Speed 4 mph (SW)    
Max Wind Speed 13 mph    
Max Gust Speed 20 mph    
Visibility 10 miles    
Events      
T = Trace of Precipitation, MM = Missing Value Source: NWS Daily Summary

Daily Weather History Graph

Daily Weather History Graph

Search for Another Location

Airport or City:

Trip Planner

Search our weather history database for the weather conditions in past years. The results will help you decide how hot, cold, wet, or windy it might be!

Date:

Astronomy

Jul. 18, 2013 Rise Set
Actual Time 6:13 AM EDT 9:11 PM EDT
Civil Twilight 5:40 AM EDT 9:44 PM EDT
Nautical Twilight 4:57 AM EDT 10:27 PM EDT
Astronomical Twilight 4:06 AM EDT 11:17 PM EDT
Moon 5:06 PM EDT (7/18) 2:05 AM EDT (7/18)
Length of Visible Light 16h 04m
Length of Day
14h 57m
Waxing Gibbous, 77% of the Moon is Illuminated
Jul 18
Waxing Gibbous
Jul 22
Full
Jul 29
Last Quarter
Aug 6
New
Aug 14
First Quarter

Hourly Weather History & Observations

Time (EDT) Temp. Heat Index Dew Point Humidity Pressure Visibility Wind Dir Wind Speed Gust Speed Precip Events Conditions
12:15 AM 79.3 °F - 73.0 °F 81% 30.18 in 10.0 mi SW 3.5 mph - N/A   Clear
12:34 AM 79.2 °F - 73.4 °F 82% 30.18 in 10.0 mi WSW 3.5 mph - N/A   Clear
12:55 AM 78.3 °F - 73.6 °F 85% 30.18 in 10.0 mi West 4.6 mph - N/A   Clear
1:15 AM 77.9 °F - 73.8 °F 87% 30.17 in 10.0 mi WSW 4.6 mph - N/A   Clear
1:34 AM 77.9 °F - 73.8 °F 87% 30.17 in 10.0 mi WSW 4.6 mph - N/A   Clear
1:55 AM 77.9 °F - 73.8 °F 87% 30.17 in 10.0 mi WSW 5.8 mph - N/A   Clear
2:15 AM 77.4 °F - 73.6 °F 88% 30.17 in 10.0 mi Calm Calm - N/A   Clear
2:35 AM 76.1 °F - 73.4 °F 91% 30.16 in 10.0 mi Calm Calm - N/A   Clear
2:55 AM 75.2 °F - 72.9 °F 92% 30.15 in 10.0 mi Calm Calm - N/A   Clear
3:14 AM 74.1 °F - 72.9 °F 96% 30.15 in 10.0 mi Calm Calm - N/A   Clear
3:35 AM 74.1 °F - 73.0 °F 96% 30.15 in 10.0 mi Calm Calm - N/A   Clear
3:55 AM 73.0 °F - 72.5 °F 98% 30.14 in 10.0 mi Calm Calm - N/A   Clear
4:14 AM 74.3 °F - 73.2 °F 96% 30.14 in 10.0 mi Calm Calm - N/A   Clear
4:35 AM 74.7 °F - 73.2 °F 95% 30.14 in 10.0 mi Calm Calm - N/A   Clear
4:55 AM 73.9 °F - 72.5 °F 95% 30.14 in 10.0 mi Calm Calm - N/A   Clear
5:14 AM 73.8 °F - 72.9 °F 97% 30.14 in 10.0 mi Calm Calm - N/A   Clear
5:35 AM 73.8 °F - 72.5 °F 96% 30.13 in 10.0 mi Calm Calm - N/A   Clear
5:55 AM 75.0 °F - 73.4 °F 95% 30.13 in 10.0 mi Calm Calm - N/A   Clear
6:14 AM 75.7 °F - 73.4 °F 92% 30.14 in 10.0 mi SW 3.5 mph - N/A   Clear
6:35 AM 75.2 °F - 73.0 °F 93% 30.14 in 10.0 mi Calm Calm - N/A   Clear
6:55 AM 76.1 °F - 73.4 °F 91% 30.14 in 10.0 mi Calm Calm - N/A   Clear
7:15 AM 77.2 °F - 73.9 °F 90% 30.14 in 10.0 mi Calm Calm - N/A   Clear
7:35 AM 77.9 °F - 73.9 °F 88% 30.14 in 10.0 mi Calm Calm - N/A   Clear
7:55 AM 78.8 °F - 74.3 °F 86% 30.14 in 10.0 mi WSW 4.6 mph - N/A   Clear
8:15 AM 79.9 °F - 74.5 °F 83% 30.14 in 10.0 mi WSW 4.6 mph - N/A   Clear
8:35 AM 81.0 °F 86.9 °F 75.2 °F 83% 30.13 in 10.0 mi SW 4.6 mph - N/A   Clear
8:54 AM 81.9 °F 88.5 °F 75.2 °F 80% 30.13 in 10.0 mi SW 4.6 mph - N/A   Clear
9:15 AM 83.5 °F 91.2 °F 75.4 °F 76% 30.13 in 10.0 mi WSW 4.6 mph - N/A   Clear
9:35 AM 84.2 °F 92.6 °F 75.6 °F 75% 30.13 in 10.0 mi SW 3.5 mph - N/A   Clear
9:54 AM 85.6 °F 94.6 °F 75.2 °F 71% 30.13 in 10.0 mi West 3.5 mph - N/A   Clear
10:15 AM 86.7 °F 97.3 °F 76.3 °F 71% 30.12 in 10.0 mi SW 4.6 mph - N/A   Clear
10:34 AM 88.0 °F 99.1 °F 76.3 °F 68% 30.12 in 10.0 mi SW 3.5 mph - N/A   Clear
10:55 AM 87.8 °F 97.6 °F 75.2 °F 66% 30.12 in 10.0 mi SW 5.8 mph - N/A   Clear
11:14 AM 88.7 °F 99.8 °F 75.9 °F 66% 30.12 in 10.0 mi SW 6.9 mph - N/A   Clear
11:35 AM 90.5 °F 102.7 °F 76.5 °F 63% 30.12 in 10.0 mi SW 4.6 mph - N/A   Clear
11:55 AM 90.9 °F 102.4 °F 75.7 °F 61% 30.12 in 10.0 mi Calm Calm - N/A   Clear
12:14 PM 91.2 °F 102.7 °F 75.4 °F 60% 30.11 in 10.0 mi West 4.6 mph - N/A   Scattered Clouds
12:35 PM 91.4 °F 100.1 °F 73.0 °F 55% 30.11 in 10.0 mi WNW 4.6 mph - N/A   Mostly Cloudy
12:55 PM 91.2 °F 102.7 °F 75.6 °F 60% 30.10 in 10.0 mi West 5.8 mph - N/A   Scattered Clouds
1:14 PM 91.9 °F 101.3 °F 73.6 °F 55% 30.09 in 10.0 mi WSW 5.8 mph - N/A   Scattered Clouds
1:35 PM 92.1 °F 102.4 °F 74.1 °F 56% 30.08 in 10.0 mi South 6.9 mph - N/A   Scattered Clouds
1:55 PM 91.2 °F 101.4 °F 74.7 °F 58% 30.07 in 10.0 mi SW 4.6 mph - N/A   Scattered Clouds
2:15 PM 93.4 °F 102.1 °F 72.9 °F 51% 30.07 in 10.0 mi SSW 6.9 mph - N/A   Scattered Clouds
2:35 PM 92.3 °F 101.5 °F 73.6 °F 54% 30.07 in 10.0 mi SW 5.8 mph - N/A   Clear
2:54 PM 93.0 °F 101.9 °F 72.9 °F 52% 30.07 in 10.0 mi SW 10.4 mph 18.4 mph N/A   Scattered Clouds
3:15 PM 93.4 °F 102.8 °F 73.4 °F 52% 30.05 in 10.0 mi SW 9.2 mph - N/A   Scattered Clouds
3:35 PM 94.1 °F 102.5 °F 72.5 °F 49% 30.04 in 10.0 mi SW 9.2 mph - N/A   Scattered Clouds
3:54 PM 94.1 °F 101.2 °F 70.9 °F 47% 30.03 in 10.0 mi SW 9.2 mph - N/A   Clear
4:15 PM 93.6 °F 99.5 °F 70.2 °F 46% 30.02 in 10.0 mi SW 8.1 mph - N/A   Scattered Clouds
4:35 PM 93.0 °F 103.2 °F 74.3 °F 54% 30.03 in 10.0 mi SW 12.7 mph 19.6 mph N/A   Scattered Clouds
4:54 PM 92.5 °F 100.7 °F 72.7 °F 52% 30.02 in 10.0 mi SW 11.5 mph 19.6 mph N/A   Scattered Clouds
5:15 PM 91.9 °F 101.3 °F 73.9 °F 55% 30.02 in 10.0 mi SSW 10.4 mph 17.3 mph N/A   Clear
5:35 PM 91.8 °F 101.5 °F 74.1 °F 56% 30.00 in 10.0 mi SSW 11.5 mph 17.3 mph N/A   Clear
5:55 PM 91.4 °F 101.3 °F 74.3 °F 57% 29.99 in 10.0 mi SW 11.5 mph 17.3 mph N/A   Clear
6:15 PM 91.4 °F 100.7 °F 73.9 °F 56% 29.99 in 10.0 mi SW 9.2 mph 16.1 mph N/A   Clear
6:34 PM 90.9 °F 100.6 °F 74.1 °F 58% 29.98 in 10.0 mi WSW 9.2 mph - N/A   Clear
6:55 PM 90.7 °F 100.1 °F 73.9 °F 58% 29.98 in 10.0 mi SW 8.1 mph - N/A   Clear
7:15 PM 90.7 °F 100.7 °F 74.7 °F 59% 29.98 in 10.0 mi SW 6.9 mph - N/A   Clear
7:34 PM 90.3 °F 101.0 °F 75.2 °F 61% 29.98 in 10.0 mi SW 5.8 mph - N/A   Clear
7:55 PM 89.2 °F 99.0 °F 74.8 °F 62% 29.97 in 10.0 mi SW 6.9 mph - N/A   Clear
8:15 PM 88.7 °F 98.7 °F 75.2 °F 64% 29.96 in 10.0 mi SW 6.9 mph - N/A   Clear
8:34 PM 88.0 °F 94.2 °F 71.6 °F 58% 29.96 in 10.0 mi SW 8.1 mph - N/A   Clear
8:55 PM 86.7 °F 92.1 °F 70.7 °F 59% 29.96 in 10.0 mi SW 6.9 mph - N/A   Clear
9:15 PM 86.0 °F 90.7 °F 70.3 °F 59% 29.96 in 10.0 mi SW 5.8 mph - N/A   Clear
9:34 PM 84.6 °F 89.4 °F 70.9 °F 63% 29.96 in 10.0 mi SSW 5.8 mph - N/A   Clear
9:55 PM 83.7 °F 88.6 °F 71.1 °F 66% 29.96 in 10.0 mi SSW 5.8 mph - N/A   Clear
10:15 PM 83.3 °F 87.9 °F 70.9 °F 66% 29.96 in 10.0 mi SSW 5.8 mph - N/A   Clear
10:35 PM 82.8 °F 87.4 °F 71.1 °F 68% 29.96 in 10.0 mi SSW 3.5 mph - N/A   Clear
10:55 PM 81.7 °F 86.0 °F 71.6 °F 71% 29.96 in 10.0 mi SSW 4.6 mph - N/A   Clear
11:14 PM 81.1 °F 85.6 °F 72.3 °F 74% 29.96 in 10.0 mi South 4.6 mph - N/A   Clear
11:35 PM 81.5 °F 86.9 °F 73.8 °F 77% 29.96 in 10.0 mi South 5.8 mph - N/A   Clear
11:55 PM 81.0 °F 86.9 °F 75.2 °F 83% 29.96 in 10.0 mi SSW 6.9 mph - N/A   Clear